[[{"header":{"parameterUnit":"m.s-1","parameterCategory":1,"la1":30.2991,"la2":30.254,"lo1":-89.0895,"lo2":-89.0444,"dy":0.0017,"dx":0.0017,"nx":28,"ny":28,"refTime":"2024-08-07T09:00:00:Z","depth":0,"parameterNumber":2,"parameterNumberName":"U-component_of_WINDS"},"data":[0,0,0,0,0,0,0,0,0,0,0,0,0,0,0,0,0,0,0,0,0,0,0,0,0,0,0,0,0,0,0,0,0,0,0,0,0,0,0,0,0,0,0,0,0,0,0,0,0,0,0,0,0,0,0,0,0,0,3.4632,3.4634,0,3.4789,3.4791,3.4793,3.4821,3.4819,3.4818,3.4817,3.4979,3.4984,3.4989,0,0,0,0,0,0,0,0,0,0,0,0,0,3.4356,3.4361,3.4632,3.4634,3.4636,3.4789,3.4791,3.4793,3.4821,3.4819,3.4818,3.4816,3.4977,3.4983,3.499,0,0,0,0,0,0,0,0,0,0,0,0,0,3.4491,3.4363,3.4632,3.4668,3.4673,3.4789,3.4791,3.4794,3.4821,3.4819,3.4817,3.4815,3.4975,3.4983,3.4991,3.5082,0,0,3.5016,3.502,0,0,0,0,0,0,0,0,3.4483,3.4501,3.4661,3.4666,3.4671,3.4783,3.4753,3.489,3.4822,3.4765,3.4817,3.4814,3.4915,3.4928,3.4962,3.5089,3.5096,3.5017,3.5022,3.5026,3.5028,0,0,0,0,0,0,0,3.4474,3.4495,3.4694,3.4663,3.467,3.4677,3.4694,3.478,3.4849,3.477,3.4772,3.479,3.4918,3.4954,3.4966,3.5099,3.5017,3.5024,3.5029,3.5032,3.5307,3.531,0,0,0,0,0,0,3.4458,3.4487,3.4689,3.4699,3.4571,3.4683,3.4702,3.4749,3.4848,3.4862,3.4792,3.4791,3.4941,3.4956,3.4972,3.5084,3.5026,3.5033,3.5038,3.5305,3.5308,3.531,0,0,0,0,0,0,3.4452,3.4476,3.4683,3.4594,3.462,3.469,3.4743,3.4754,3.479,3.4865,3.4878,3.4816,3.494,3.496,3.5054,3.509,3.5037,3.5045,3.5302,3.5306,3.5309,3.5308,0,0,0,0,0,0,3.4444,3.4473,3.4508,3.4594,3.4625,3.4762,3.4745,3.4758,3.4804,3.4804,3.4891,3.4904,3.494,3.5041,3.5062,3.51,3.5051,3.5299,3.5304,3.5308,3.5305,3.5311,3.5316,0,0,0,0,0,3.4434,3.4502,3.451,3.4534,3.467,3.4764,3.4782,3.4822,3.4807,3.4842,3.4891,3.4901,3.5083,3.5051,3.5074,3.5115,3.5297,3.5303,3.5308,3.5303,3.531,3.5316,0,0,0,0,0,0,3.4419,3.4514,3.4524,3.4622,3.4684,3.4768,3.4814,3.4828,3.4897,3.4894,3.4942,3.4961,3.5052,3.5094,3.5056,3.5208,3.5189,3.5199,3.5177,3.5185,3.519,3.5177,3.5058,0,0,0,0,0,3.4427,3.4495,3.4575,3.4653,3.4684,3.4744,3.4786,3.4812,3.4879,3.4906,3.4961,3.5026,3.5098,3.5144,3.5214,3.5312,3.5331,3.5352,3.5358,3.5362,3.5369,3.5423,3.5433,3.5327,3.5327,3.5327,0,0,3.4444,3.4505,3.4545,3.4652,3.4703,3.4773,3.4766,3.484,3.4892,3.4917,3.5008,3.5051,3.5127,3.5223,3.5268,3.526,3.5403,3.5369,3.5371,3.5377,3.543,3.544,3.5448,3.5331,3.533,3.533,0,0,3.451,3.4564,3.4634,3.4686,3.4765,3.4804,3.4821,3.4903,3.4933,3.5025,3.5045,3.5108,3.5231,3.5284,3.5327,3.5414,3.5425,3.5436,3.5464,3.5516,3.5524,3.5532,3.5561,3.5571,3.5444,3.5444,3.5444,0,3.4522,3.4627,3.4669,3.4742,3.4788,3.4815,3.4887,3.4935,3.5033,3.5064,3.5054,3.5209,3.5262,3.537,3.5391,3.5426,3.5446,3.5425,3.5519,3.5527,3.5535,3.5564,3.5575,3.5444,3.5444,3.5444,3.5444,0,3.4636,3.4709,3.4757,3.4849,3.4901,3.4973,3.5027,3.5075,3.5096,3.5136,3.523,3.5295,3.5378,3.5406,3.5429,3.5518,3.551,3.551,3.5491,3.5545,3.5573,3.5584,3.5445,3.5445,3.5445,3.5445,0,0,3.4695,3.4811,3.4828,3.487,3.4959,3.5016,3.5089,3.5171,3.521,3.5277,3.5339,3.5443,3.5443,3.5491,3.552,3.5566,3.5629,3.556,3.5562,3.5568,3.573,3.5728,3.574,3.5638,3.564,3.5642,3.5723,0,3.4771,3.4901,3.4942,3.5052,3.5119,3.5146,3.521,3.5271,3.5311,3.5374,3.5419,3.5491,3.5486,3.5516,3.5563,3.5611,3.5662,3.5606,3.5696,3.5698,3.5673,3.5755,3.5754,3.5827,3.5734,3.5736,3.5738,0,3.4875,3.4943,3.5059,3.5139,3.5169,3.5225,3.5303,3.5363,3.5434,3.546,3.5514,3.5539,3.5617,3.5596,3.5703,3.5664,3.5704,3.5734,3.5737,3.5745,3.5719,3.5763,3.5851,3.5861,3.5755,3.5754,3.5753,0,3.4904,3.5025,3.511,3.5146,3.5241,3.528,3.5322,3.5391,3.5437,3.5506,3.5536,3.5613,3.5654,3.5714,3.5759,3.5739,3.5862,3.5844,3.5885,3.5884,3.5907,3.5905,3.6,3.5936,3.5936,3.5936,3.5936,0,3.4983,3.5052,3.5124,3.5176,3.5255,3.5302,3.5378,3.5422,3.5483,3.5543,3.5573,3.5629,3.5686,3.575,3.5786,3.5869,3.5888,3.5911,3.5919,3.5907,3.5904,3.5932,3.5927,3.5939,3.5938,3.5938,3.5937,0,3.5028,3.5079,3.5173,3.5256,3.5279,3.5333,3.5404,3.5455,3.5497,3.5574,3.5595,3.566,3.5737,3.5789,3.5888,3.5912,3.6001,3.601,3.5977,3.5981,3.6017,3.6012,3.6133,3.615,3.6076,3.6077,3.6077,0,3.5073,3.5127,3.5216,3.5259,3.5301,3.5369,3.5416,3.5465,3.5513,3.5598,3.5639,3.5718,3.5783,3.5906,3.5962,3.6038,3.6047,3.6084,3.6058,3.6044,3.6045,3.6041,3.6046,3.6087,3.6088,3.6088,3.6089,0,3.5148,3.5171,3.5237,3.5313,3.5369,3.5431,3.5493,3.5527,3.5586,3.5639,3.5718,3.5769,3.587,3.5947,3.6028,3.6072,3.609,3.6096,3.6109,3.6096,3.6074,3.6085,3.5986,3.6093,3.6092,3.6092,3.6092,3.6092,3.5194,3.5242,3.5312,3.5386,3.5438,3.5495,3.5547,3.5596,3.5662,3.5747,3.5773,3.5855,3.5925,3.6035,3.608,3.6145,3.6141,3.6161,3.6165,3.6169,3.6168,3.6066,3.616,3.616,3.616,3.616,3.616,0,3.5268,3.5315,3.5382,3.5468,3.5525,3.5538,3.5608,3.5655,3.5727,3.579,3.5854,3.5944,3.602,3.6083,3.6162,3.6201,3.6212,3.622,3.6217,3.6226,3.6167,3.6147,3.621,3.621,3.621,3.621,3.621,3.621,3.5313,3.5396,3.5427,3.5536,3.5583,3.5663,3.5701,3.5755,3.5805,3.5905,3.5967,3.6008,3.6072,3.6155,3.6225,3.6241,3.6268,3.6274,3.6293,3.6236,3.623,3.6225,3.6206,3.628,3.628,3.6346,3.6346,3.6347]},{"header":{"parameterUnit":"m.s-1","parameterCategory":1,"la1":30.2991,"la2":30.254,"lo1":-89.0895,"lo2":-89.0444,"dy":0.0017,"dx":0.0017,"nx":28,"ny":28,"refTime":"2024-08-07T09:00:00:Z","depth":0,"parameterNumber":3,"parameterNumberName":"V-component_of_WINDS"},"data":[0,0,0,0,0,0,0,0,0,0,0,0,0,0,0,0,0,0,0,0,0,0,0,0,0,0,0,0,0,0,0,0,0,0,0,0,0,0,0,0,0,0,0,0,0,0,0,0,0,0,0,0,0,0,0,0,0,0,-1.6657,-1.6658,0,-1.6736,-1.6737,-1.6738,-1.6732,-1.6731,-1.673,-1.6729,-1.6811,-1.6814,-1.6817,0,0,0,0,0,0,0,0,0,0,0,0,0,-1.6504,-1.6507,-1.6657,-1.6658,-1.6659,-1.6736,-1.6737,-1.6738,-1.6733,-1.6731,-1.673,-1.6729,-1.681,-1.6814,-1.6818,0,0,0,0,0,0,0,0,0,0,0,0,0,-1.6575,-1.6508,-1.6657,-1.6666,-1.6667,-1.6736,-1.6737,-1.6738,-1.6733,-1.6731,-1.6729,-1.6728,-1.6808,-1.6813,-1.6818,-1.6883,0,0,-1.6833,-1.6835,0,0,0,0,0,0,0,0,-1.6571,-1.6581,-1.6664,-1.6665,-1.6667,-1.6723,-1.6713,-1.6787,-1.6733,-1.6708,-1.6729,-1.6727,-1.6783,-1.679,-1.6809,-1.6887,-1.6891,-1.6833,-1.6836,-1.6839,-1.684,0,0,0,0,0,0,0,-1.6566,-1.6578,-1.6689,-1.6665,-1.6667,-1.6666,-1.6675,-1.6727,-1.6754,-1.671,-1.671,-1.6719,-1.6784,-1.6804,-1.681,-1.6892,-1.6833,-1.6838,-1.6841,-1.6843,-1.7028,-1.703,0,0,0,0,0,0,-1.6559,-1.6574,-1.6686,-1.6691,-1.6614,-1.667,-1.668,-1.6707,-1.6754,-1.6759,-1.6721,-1.6719,-1.6796,-1.6805,-1.6813,-1.6892,-1.6838,-1.6843,-1.6846,-1.7026,-1.7028,-1.7031,0,0,0,0,0,0,-1.6556,-1.6569,-1.6683,-1.6632,-1.6647,-1.6675,-1.6705,-1.6709,-1.6729,-1.6762,-1.6767,-1.6736,-1.6795,-1.6806,-1.6866,-1.6895,-1.6845,-1.685,-1.7024,-1.7027,-1.7029,-1.7051,0,0,0,0,0,0,-1.6552,-1.6568,-1.6593,-1.6633,-1.6649,-1.6734,-1.6707,-1.6712,-1.6738,-1.6736,-1.6778,-1.6783,-1.6795,-1.6859,-1.6871,-1.6901,-1.6854,-1.7021,-1.7025,-1.7029,-1.7048,-1.7054,-1.706,0,0,0,0,0,-1.6546,-1.6596,-1.6594,-1.6608,-1.6681,-1.6735,-1.6745,-1.6757,-1.674,-1.6765,-1.6786,-1.6781,-1.689,-1.6865,-1.6878,-1.691,-1.7019,-1.7024,-1.7028,-1.7045,-1.7053,-1.706,0,0,0,0,0,0,-1.6559,-1.6602,-1.66,-1.6664,-1.6696,-1.6734,-1.6766,-1.6765,-1.6803,-1.68,-1.6814,-1.6824,-1.6883,-1.6903,-1.6874,-1.6976,-1.6953,-1.696,-1.6961,-1.6969,-1.6974,-1.6968,-1.6858,0,0,0,0,0,-1.657,-1.661,-1.6645,-1.6698,-1.6715,-1.6738,-1.6762,-1.6769,-1.6803,-1.6816,-1.6842,-1.6875,-1.6917,-1.6944,-1.6984,-1.7051,-1.706,-1.708,-1.7086,-1.7091,-1.7097,-1.7133,-1.7142,-1.7045,-1.7045,-1.7045,0,0,-1.6591,-1.662,-1.6644,-1.6702,-1.6727,-1.6769,-1.6749,-1.6794,-1.6826,-1.6823,-1.6881,-1.6901,-1.6939,-1.7002,-1.7032,-1.7021,-1.7126,-1.7097,-1.71,-1.7104,-1.7139,-1.7148,-1.7156,-1.7048,-1.7048,-1.7047,0,0,-1.6652,-1.6678,-1.6725,-1.6751,-1.679,-1.6805,-1.6816,-1.6855,-1.6868,-1.6926,-1.6925,-1.6963,-1.7034,-1.7062,-1.7085,-1.7157,-1.7154,-1.717,-1.7201,-1.7236,-1.7244,-1.7251,-1.7276,-1.7285,-1.7176,-1.7176,-1.7176,0,-1.6674,-1.6737,-1.6749,-1.6795,-1.682,-1.682,-1.6867,-1.6893,-1.6943,-1.6961,-1.6948,-1.7037,-1.7063,-1.7133,-1.715,-1.717,-1.7183,-1.7164,-1.7242,-1.7249,-1.7255,-1.7279,-1.7289,-1.7177,-1.7177,-1.7177,-1.7177,0,-1.6762,-1.6805,-1.6839,-1.6887,-1.6916,-1.6962,-1.6982,-1.7011,-1.7015,-1.7032,-1.7091,-1.7122,-1.7168,-1.7186,-1.7191,-1.7256,-1.7248,-1.7239,-1.7215,-1.7266,-1.7289,-1.7298,-1.718,-1.7179,-1.7178,-1.7178,0,0,-1.6832,-1.6886,-1.6898,-1.692,-1.6963,-1.6997,-1.7044,-1.7089,-1.7113,-1.7148,-1.7187,-1.7248,-1.724,-1.7266,-1.7275,-1.7306,-1.736,-1.7293,-1.7294,-1.7303,-1.7433,-1.7439,-1.745,-1.7359,-1.7361,-1.7362,-1.743,0,-1.6896,-1.6978,-1.6991,-1.7063,-1.7103,-1.7104,-1.7145,-1.7176,-1.7194,-1.7231,-1.725,-1.7292,-1.7278,-1.7294,-1.7325,-1.7347,-1.7386,-1.7342,-1.7396,-1.7397,-1.7385,-1.7462,-1.7468,-1.7531,-1.7439,-1.744,-1.7442,0,-1.6982,-1.7019,-1.7095,-1.7133,-1.715,-1.7186,-1.7228,-1.7264,-1.73,-1.731,-1.734,-1.7344,-1.7393,-1.7369,-1.7436,-1.7406,-1.7429,-1.7443,-1.7446,-1.745,-1.7422,-1.7467,-1.7551,-1.756,-1.7456,-1.7455,-1.7454,0,-1.7025,-1.7093,-1.7147,-1.7166,-1.7212,-1.7237,-1.7257,-1.7291,-1.7318,-1.7355,-1.7372,-1.7415,-1.7438,-1.7472,-1.7488,-1.7469,-1.7554,-1.7531,-1.7564,-1.7564,-1.7581,-1.758,-1.7668,-1.7598,-1.7598,-1.7597,-1.7597,0,-1.7095,-1.7141,-1.7167,-1.72,-1.7252,-1.7267,-1.7318,-1.7338,-1.7368,-1.7406,-1.741,-1.7445,-1.7465,-1.7503,-1.7517,-1.757,-1.7581,-1.7591,-1.7594,-1.759,-1.7589,-1.7604,-1.76,-1.76,-1.7599,-1.7599,-1.7598,0,-1.715,-1.717,-1.7229,-1.7267,-1.7278,-1.7314,-1.7347,-1.738,-1.7397,-1.7445,-1.7457,-1.7484,-1.7529,-1.7549,-1.7605,-1.7614,-1.7675,-1.7676,-1.7663,-1.7664,-1.7695,-1.7692,-1.7796,-1.781,-1.7731,-1.7732,-1.7733,0,-1.7193,-1.7228,-1.727,-1.7295,-1.7316,-1.7357,-1.7383,-1.74,-1.7427,-1.7471,-1.7498,-1.7544,-1.7581,-1.7653,-1.7678,-1.7721,-1.7722,-1.7756,-1.7728,-1.7723,-1.7721,-1.7718,-1.7722,-1.776,-1.7761,-1.7762,-1.7762,0,-1.7266,-1.7274,-1.7312,-1.7354,-1.7385,-1.7419,-1.7452,-1.7472,-1.7494,-1.7525,-1.7571,-1.76,-1.7657,-1.7702,-1.7746,-1.7768,-1.7769,-1.7771,-1.778,-1.7776,-1.7767,-1.7772,-1.7675,-1.7768,-1.7767,-1.7767,-1.7767,-1.7766,-1.7316,-1.7348,-1.7382,-1.7424,-1.7451,-1.7481,-1.7514,-1.7535,-1.7573,-1.7621,-1.7628,-1.7677,-1.7713,-1.7773,-1.7796,-1.7835,-1.7827,-1.7841,-1.7844,-1.7847,-1.7849,-1.7762,-1.7843,-1.7843,-1.7843,-1.7843,-1.7843,0,-1.7389,-1.7411,-1.745,-1.7496,-1.7529,-1.7527,-1.7563,-1.7591,-1.7634,-1.7667,-1.7703,-1.7756,-1.78,-1.7829,-1.7873,-1.7899,-1.79,-1.791,-1.7907,-1.7912,-1.7854,-1.7841,-1.7907,-1.7907,-1.7907,-1.7907,-1.7907,-1.7907,-1.7431,-1.7484,-1.7496,-1.7562,-1.7584,-1.7632,-1.7653,-1.7681,-1.7707,-1.7766,-1.7802,-1.782,-1.7852,-1.7898,-1.7938,-1.7946,-1.7961,-1.7971,-1.7978,-1.7923,-1.7916,-1.791,-1.7897,-1.7975,-1.7975,-1.8033,-1.8033,-1.8034]}]]